RH
100 100 100 96 89 100 100 98 75 100 100 95 100 97 98 100 100 100 100 98 94 97 89 79 70 62 55 50 48 44 45 43 40 38 42 38 34 30 30 38 37 37 34 28
100 100 100 100 100 94 94 100 100 91 90 89 79 73 79 78 80 83 84 95 98 89 78 70 62 58 50 46 44 47 47 44 46 46 40 29 27 35 40 41 40 33 36 34
100 100 100 100 98 96 99 100 100 100 100 100 100 94 76 74 71 71 72 69 66 54 49 49 46 46 40 40 45 47 42 40 38 33 31 34 38 39 44 46 36 35 41 47
100 99 96 100 100 100 100 98 100 100 100 100 100 100 100 100 82 70 61 47 43 37 37 39 36 38 40 41 38 36 36 35 34 38 42 41 39 41 36 34 43 52 50 26
96 97 89 93 96 100 100 99 100 100 100 100 100 100 100 99 100 100 84 62 48 44 44 55 42 39 39 37 38 43 48 43 48 43 48 45 32 32 40 55 65 45 28 16
72 91 90 90 96 100 100 100 100 100 100 100 100 100 100 100 100 93 95 94 91 78 66 67 68 58 52 59 59 59 60 59 56 41 43 33 41 58 67 57 38 23 14 11
41 66 74 71 78 100 100 100 100 100 100 100 100 100 100 95 100 100 100 94 90 84 73 71 64 72 66 59 56 57 60 52 44 36 45 57 64 62 60 40 17 12 9 7
19 31 54 72 91 96 100 100 100 100 100 100 100 100 100 100 91 89 86 76 75 68 66 67 59 61 51 58 64 60 52 43 48 59 70 60 53 58 28 15 11 8 7 7
22 41 54 73 89 82 100 96 96 100 100 100 95 92 86 88 98 83 75 76 74 72 62 53 48 55 60 51 42 44 52 60 72 80 71 60 42 18 12 8 8 7 7 6
45 55 65 73 84 93 100 98 100 100 100 100 99 87 75 80 76 69 66 57 57 56 51 54 56 62 54 47 54 65 76 86 95 83 56 20 14 9 8 8 7 7 6 6
59 74 84 92 88 74 77 73 86 100 97 93 84 75 74 71 67 69 74 70 58 54 59 65 67 56 59 72 83 87 86 83 73 30 16 11 8 7 6 6 6 6 6 6
73 78 86 77 61 57 61 75 85 98 100 91 76 74 73 72 70 64 57 54 60 62 61 64 65 79 85 88 82 82 67 31 17 11 9 8 7 6 6 6 6 6 6 6
64 55 47 54 61 59 57 64 82 75 68 63 66 64 56 56 57 58 64 63 69 67 68 79 85 82 79 74 60 30 18 12 9 8 7 6 6 6 6 6 6 7 7 7
71 85 88 87 82 78 72 66 71 70 71 69 54 56 59 66 73 73 79 80 80 82 86 87 84 68 52 37 19 12 9 8 7 7 6 6 6 6 6 7 8 7 7 7
62 70 69 69 69 70 69 68 70 71 73 71 70 70 76 75 81 87 82 87 92 97 92 78 60 35 20 14 10 8 8 7 7 6 6 6 6 7 7 7 7 7 6 6
62 65 74 75 72 71 68 67 71 72 76 83 85 88 84 83 80 84 93 97 93 82 45 34 20 13 10 9 8 8 7 6 6 6 7 7 8 6 7 7 6 5 5 6
73 74 73 71 71 74 85 94 96 96 97 93 92 86 84 91 93 97 92 70 42 30 20 14 10 9 8 8 7 7 6 7 7 7 7 7 7 7 6 6 5 4 5 6
74 71 71 75 80 89 100 98 97 92 88 89 98 100 98 88 76 58 39 29 20 14 11 9 9 8 8 8 7 7 7 7 7 7 8 7 6 5 5 5 5 4 5 6
93 98 100 100 100 96 98 95 97 98 92 83 70 60 55 38 29 23 18 14 11 10 9 8 8 8 8 7 7 7 7 6 6 7 8 6 5 4 4 5 5 5 5 6
96 95 92 92 93 80 70 72 74 48 51 44 36 26 22 20 17 13 11 10 10 8 8 7 7 6 6 6 6 6 7 7 7 7 7 6 4 4 4 4 5 5 6 6
59 56 50 57 55 51 43 42 35 30 25 20 19 17 14 12 11 10 9 8 8 8 8 7 6 6 6 6 6 7 7 7 7 7 7 6 4 4 5 5 5 5 5 5
36 36 35 34 32 28 24 20 19 17 16 14 12 11 10 10 9 9 9 9 9 7 7 7 6 6 6 6 6 7 7 8 8 8 8 6 4 4 4 5 5 5 5 5
21 19 18 17 17 17 16 14 12 11 10 10 10 9 10 10 10 10 10 9 9 9 9 8 7 6 6 6 7 7 7 8 8 9 8 7 6 6 6 6 6 6 5 5
16 15 15 13 11 10 10 10 10 10 10 9 10 10 10 11 12 12 12 12 11 9 9 9 9 8 8 7 7 8 8 9 10 10 10 9 7 6 6 7 7 7 7 7
9 9 9 9 9 9 10 10 10 10 11 13 14 14 14 14 15 15 15 15 15 16 15 13 10 10 10 9 8 9 9 9 9 9 10 10 10 8 8 8 8 7 7 7
8 8 9 10 12 13 14 14 14 16 17 16 15 15 16 17 17 17 18 17 18 17 17 17 17 15 14 13 12 12 11 10 10 10 9 9 10 10 10 8 7 7 7 7
12 13 13 15 14 14 14 15 16 15 14 14 15 16 16 16 17 18 20 21 21 22 24 23 20 18 16 15 14 14 13 12 12 11 11 11 10 10 10 10 10 9 8 7
Wind_Speed
76 75 76 75 69 60 71 76 83 83 86 87 88 86 86 85 86 87 88 90 91 92 92 92 93 95 99 102 104 108 111 111 107 106 109 114 116 120 125 130 133 131 128 114
80 82 80 79 74 63 59 70 76 85 88 90 94 93 91 90 91 92 91 93 94 96 97 99 97 99 101 104 106 108 110 111 113 113 118 122 120 122 127 129 126 121 133 127
88 86 82 78 75 68 65 66 71 74 82 86 88 93 94 95 96 96 97 99 100 101 100 102 102 103 105 107 108 112 114 116 119 118 121 127 125 125 127 127 125 131 133 141
93 89 82 78 74 73 66 68 70 71 77 81 82 83 86 92 98 100 103 104 106 105 106 106 106 107 109 112 112 116 119 118 125 123 124 123 119 118 120 126 133 142 141 141
95 89 82 81 79 74 69 73 71 72 80 83 88 91 95 97 95 96 103 106 107 109 108 109 109 112 113 112 116 121 129 130 130 115 123 120 114 119 129 136 141 145 143 137
94 88 85 82 75 67 70 70 70 72 79 80 84 90 96 96 100 105 106 107 107 109 113 114 116 118 120 124 127 133 129 127 124 109 119 121 122 133 138 143 144 142 136 131
85 82 80 76 69 68 71 70 73 79 79 83 89 90 98 98 100 107 110 111 109 112 115 119 121 122 127 130 124 124 124 120 119 119 125 130 134 139 145 148 139 132 128 118
73 72 71 69 69 70 72 78 80 80 82 88 92 97 99 100 102 107 113 114 117 119 121 121 124 126 117 120 116 117 117 119 125 130 136 139 142 146 145 136 128 121 111 103
62 63 63 63 66 70 74 86 84 83 87 94 98 99 102 103 104 112 112 109 114 118 125 118 118 114 108 107 106 113 121 127 133 141 145 146 147 139 130 122 111 106 99 94
52 55 57 58 59 62 69 80 89 87 97 100 100 105 108 108 114 116 118 116 114 118 118 117 109 111 109 111 117 123 130 137 143 148 149 139 132 122 113 105 98 94 90 84
48 49 50 55 62 68 74 80 89 91 96 101 104 103 106 110 113 113 114 117 116 110 108 112 113 111 116 122 128 134 139 144 147 142 133 125 114 105 98 92 88 83 79 76
49 51 55 60 64 65 68 77 84 92 94 102 104 106 107 110 116 113 108 107 107 108 109 111 115 121 126 131 136 142 143 140 130 122 113 105 99 94 89 83 78 76 73 70
49 53 54 55 62 63 66 70 82 89 97 96 101 105 103 101 103 103 105 105 109 110 113 119 125 129 134 138 140 136 130 120 111 103 99 93 88 83 78 76 73 71 69 66
50 49 50 53 56 59 61 65 72 77 81 85 84 85 89 91 96 100 105 108 112 117 122 126 131 135 136 136 129 119 109 101 96 91 87 82 77 75 74 71 69 67 64 62
44 47 49 50 54 60 64 67 68 70 76 79 82 86 92 96 101 105 109 114 120 124 130 133 136 133 125 117 108 100 94 89 85 80 76 73 71 69 67 66 63 61 60 58
37 41 47 52 54 57 61 65 71 76 81 88 93 97 101 103 107 112 116 121 127 131 131 129 122 112 104 97 91 87 82 78 74 71 69 67 66 64 60 59 56 55 53 52
49 53 56 58 61 64 68 72 78 83 89 93 97 101 105 109 113 118 123 126 128 124 116 108 99 92 87 83 78 75 73 70 67 64 63 62 59 58 54 54 53 51 48 47
59 61 63 67 72 75 80 83 87 91 95 99 103 108 111 115 119 121 122 119 112 104 96 88 83 79 75 72 69 67 64 61 59 57 57 57 54 49 48 49 49 47 43 42
67 71 74 77 80 84 88 91 95 98 101 105 109 111 115 115 113 109 104 97 90 84 78 73 70 68 66 63 60 58 57 56 53 49 50 51 48 46 43 43 42 42 38 37
74 76 79 83 87 90 94 97 102 104 107 108 107 105 102 99 95 89 83 78 73 69 66 62 61 59 57 55 52 49 48 47 47 46 44 44 43 43 41 40 38 36 34 34
83 86 89 91 94 96 99 100 98 97 96 93 91 89 85 79 74 71 68 65 63 59 58 57 54 51 48 46 45 43 42 42 42 42 42 41 39 36 35 36 37 36 34 32
87 88 89 90 90 89 87 85 84 83 82 78 73 68 66 63 61 59 58 54 52 52 50 48 46 43 41 40 39 38 39 38 38 38 38 39 38 35 34 33 32 32 32 31
78 77 75 74 75 75 74 72 68 64 61 60 58 55 52 51 49 45 44 42 42 43 42 40 39 37 37 36 35 35 35 35 34 35 36 35 34 33 33 32 32 31 30 29
66 66 66 64 61 57 54 52 52 50 48 45 44 41 38 36 34 33 33 35 36 35 35 35 35 35 34 33 31 31 31 32 32 32 33 34 34 33 33 32 32 31 30 29
51 49 47 45 42 42 40 39 37 36 35 34 31 29 29 29 30 30 30 30 31 32 33 35 34 32 31 30 30 30 30 31 31 31 30 31 31 31 30 31 31 31 31 29
37 35 33 32 31 31 31 30 30 29 27 26 24 24 24 25 25 25 26 28 29 30 30 30 31 32 31 31 31 32 32 33 33 33 33 32 31 31 31 30 28 28 29 29
25 26 26 27 27 26 27 28 27 24 22 23 23 22 21 22 24 24 25 26 27 27 28 30 32 32 33 33 34 34 35 36 36 35 35 34 34 34 34 33 33 32 30 29
Wind_Direction
293 293 293 294 293 281 260 259 255 258 258 257 259 261 262 264 266 268 270 271 271 273 274 276 277 279 280 281 281 282 283 283 285 287 289 290 289 292 294 296 296 297 298 298
288 290 289 288 287 285 272 258 261 262 262 262 262 262 263 265 267 269 270 271 272 273 274 276 277 279 280 281 285 286 285 285 288 289 291 290 291 295 296 296 298 299 298 301
286 287 284 282 283 285 274 255 254 261 265 267 269 269 269 270 270 272 274 274 274 274 276 278 280 281 282 283 285 287 287 289 291 293 293 295 296 298 298 300 299 298 301 299
284 283 280 278 278 279 270 258 247 254 260 264 264 266 268 271 272 272 273 274 276 278 279 280 281 283 285 287 288 289 290 292 294 297 297 297 298 300 300 298 300 299 301 300
283 279 277 276 278 275 268 256 247 253 257 263 263 265 267 268 270 271 273 276 278 280 283 285 286 287 288 290 294 295 296 298 298 300 299 299 301 301 299 300 301 302 302 303
275 273 273 273 269 264 260 252 247 253 258 262 267 265 266 268 271 273 275 277 280 280 284 287 288 290 293 293 295 297 299 299 298 300 298 299 303 299 301 302 302 302 302 300
268 266 265 265 260 255 254 246 247 252 258 261 265 268 266 266 269 272 275 277 279 281 287 290 291 291 293 296 298 298 298 298 299 300 300 301 302 303 303 303 303 301 300 298
263 259 258 257 253 252 249 241 243 249 254 257 259 263 264 269 272 273 275 278 281 285 288 289 291 294 298 298 298 298 298 298 298 300 301 304 306 305 303 301 300 299 298 298
256 254 255 255 254 253 248 245 244 248 253 258 261 264 267 269 274 275 277 280 284 285 288 294 297 298 299 297 298 298 298 299 301 303 304 305 304 302 301 300 300 298 297 297
252 251 252 254 255 254 249 250 245 250 253 257 264 266 268 271 273 277 280 284 287 291 293 297 297 298 297 296 297 298 299 302 303 304 303 303 301 301 299 299 298 298 297 297
249 250 252 253 253 252 253 253 249 252 257 259 264 269 271 273 277 281 284 288 292 294 295 296 296 296 296 298 300 301 303 303 303 302 302 301 300 300 299 298 297 297 296 296
248 249 249 252 257 260 259 257 253 254 258 261 267 271 274 276 280 284 288 291 294 295 294 294 295 297 300 301 303 303 304 302 301 301 300 300 300 300 299 298 298 298 297 296
260 264 269 275 268 268 270 266 259 259 263 270 272 277 281 283 285 288 289 292 293 294 294 296 299 301 302 304 304 303 302 301 301 300 300 300 299 299 299 299 298 298 297 297
263 267 269 268 269 270 271 274 274 275 276 276 278 282 285 287 288 289 291 293 294 296 299 300 302 304 303 303 302 301 301 301 301 301 300 300 300 301 300 300 300 299 298 297
266 266 270 274 276 276 276 277 279 280 280 284 286 288 288 290 291 292 293 296 298 299 300 302 302 302 302 301 301 301 301 301 301 301 301 301 301 301 301 300 299 299 298 297
279 280 279 276 277 279 281 284 283 285 285 286 288 290 291 291 292 294 297 298 299 301 301 301 301 301 302 301 302 302 302 302 303 302 302 302 303 303 301 299 300 300 299 298
280 278 279 281 282 284 285 286 286 286 288 289 290 290 292 294 296 297 298 299 300 301 300 301 301 301 302 302 302 302 304 303 302 303 304 303 303 303 302 301 302 302 303 301
276 277 279 279 281 284 285 286 287 288 289 290 291 293 294 296 297 299 299 299 299 300 300 301 302 302 303 304 305 305 305 304 303 304 304 304 306 305 305 305 304 304 305 303
279 280 281 282 283 283 285 287 288 290 291 292 295 296 297 297 297 298 298 299 300 301 301 301 302 304 304 305 307 309 308 306 305 306 307 309 311 311 311 308 305 306 308 306
280 281 282 282 284 287 289 290 291 294 295 296 296 295 296 297 298 299 300 301 300 301 302 304 305 306 307 307 309 310 309 308 310 313 314 315 315 316 315 314 315 313 310 309
286 286 288 288 289 290 291 292 292 293 294 295 296 297 297 298 299 300 301 303 304 305 305 306 309 309 309 310 311 314 316 316 317 318 320 321 321 321 318 318 319 318 315 313
285 286 287 287 288 289 290 291 293 294 295 295 296 297 299 300 302 304 306 306 306 306 310 313 313 315 316 316 318 321 324 324 322 323 325 327 327 328 327 325 324 323 322 321
284 285 286 288 289 292 294 294 295 295 296 297 299 300 303 306 308 308 308 311 314 316 315 318 321 324 327 327 324 324 327 329 330 331 333 334 334 335 334 333 332 332 331 330
289 289 290 292 293 294 294 295 297 298 300 303 305 308 309 309 313 314 320 321 322 324 328 332 336 335 332 331 332 334 336 339 339 339 340 342 342 341 341 340 339 339 338 336
291 292 293 295 296 297 299 302 306 309 310 311 310 308 314 319 321 324 324 328 335 337 342 343 342 343 344 344 346 347 347 348 349 350 350 350 350 350 348 346 345 345 345 345
295 295 296 298 301 306 307 310 314 312 308 307 313 319 322 321 322 328 333 338 342 346 348 349 353 356 358 358 358 358 358 358 357 357 358 357 356 356 356 356 354 351 348 348
302 301 305 307 305 310 314 311 307 306 315 323 322 321 323 330 336 337 340 343 344 345 349 353 358 2 5 5 5 4 3 2 2 2 1 0 360 359 359 359 358 357 356 355